Regional Weather Roundup
Issued by NWS Jackson, KY

Home | Current Version | Previous Version | Graphics & Text | Print | Product List | Glossary On
Versions: 1 2 3 4 5 6 7 8 9 10 11 12 13 14 15 16 17 18 19 20 21 22 23 24 25 26 27 28 29 30 31 32 33 34 35 36 37 38 39 40 41 42 43 44 45 46 47 48 49 50
000
ASUS43 KJKL 310810
RWRJKL

EAST KENTUCKY HOURLY WEATHER ROUNDUP
NATIONAL WEATHER SERVICE JACKSON KY
400 AM EDT SUN AUG 31 2014

NOTE: "FAIR" INDICATES FEW OR NO CLOUDS BELOW 12,000 FEET WITH
NO SIGNIFICANT WEATHER AND/OR OBSTRUCTIONS TO VISIBILITY.

* THESE REPORTS ARE NOT UNDER NWS QUALITY CONTROL AND MAY NOT
  REPORT WEATHER SUCH AS PRECIPITATION AND FOG.

KYZ079-080-083-085-087-088-110-112-115-119-120-310900
...EASTERN KENTUCKY...

CITY           SKY/WX    TMP DP  RH WIND       PRES   REMARKS
JACKSON        CLOUDY    69  67  93 CALM      30.09S
LONDON         CLOUDY    71  68  90 S5        30.11S
SOMERSET*      CLOUDY    70  70 100 CALM      30.10F
MONTICELLO*    CLOUDY    70  69  96 CALM      30.11S
WILLIAMSBURG*  CLEAR     68  68 100 SE7       30.11S
MIDDLESBORO*   CLOUDY    71  69  94 S6        30.14S
HARLAN APT*    CLOUDY    68  68 100 MISG      30.15R
HAZARD APT*    SUNNY     70  70 100 CALM      30.10F
BLACK MTN*       N/A     61  61 100 S3          N/A
PIKEVILLE APT* PTCLDY    70  68  94 SE7       30.11F
BIG SANDY*     DRIZZLE   70  69  95 SE8       30.08F
MOREHEAD APT*  CLOUDY    72  70  94 SW6       30.08R FOG
$$

KYZ035-036-041-042-044-050-067-078-099-310900
...CENTRAL KENTUCKY...

CITY           SKY/WX    TMP DP  RH WIND       PRES   REMARKS
MT STERLING*   CLOUDY    70  70 100 SW7       30.07S
FLEMING/MASON* RAIN      70  70 100 CALM      30.05S
DANVILLE*      CLOUDY    70  68  94 SW8       30.09R
RICHMOND*      CLOUDY    70  68  94 SW9       30.08R
LEXINGTON      CLOUDY    72  68  87 S14       30.07R
FRANKFORT      CLOUDY    72  70  93 SW7       30.03R
$$

KYZ091>093-OHZ055-061-077-WVZ005-015-034-035-042-310900
...SOUTHERN OHIO/WEST VIRGINIA...

CITY           SKY/WX    TMP DP  RH WIND       PRES   REMARKS
COVINGTON      CLOUDY    72  69  90 S5        30.02F FOG
COLUMBUS       CLOUDY    73  69  87 S6        30.03F FOG
DAYTON         CLOUDY    72  68  87 S5        30.03F
WILMINGTON     CLOUDY    69  67  93 SW5       30.03F FOG
HUNTINGTON     LGT RAIN  70  69  97 S6        30.05F
CHARLESTON     TSTM      73  70  90 SW15G23   30.12R
PINEVILLE*     HVY RAIN  71  71  98 MISG      30.23R
BECKLEY        CLOUDY    73  64  73 S3        30.19S
BLUEFIELD      CLOUDY    75  62  64 S5        30.23S
$$

VAZ002-007-008-TNZ017-027-036-066-071-310900
...SOUTHWEST VIRGINIA/EAST TENNESSEE...

CITY           SKY/WX    TMP DP  RH WIND       PRES   REMARKS
WISE*          LGT RAIN  66  64  94 CALM      30.22F
JONESVILLE*      N/A     68  68 100 CALM      30.18R
ABINGDON*      LGT RAIN  70  68  95 W5        30.23S
BRISTOL        HVY RAIN  68  66  93 E3        30.19F FOG
KNOXVILLE      MOCLDY    70  68  93 CALM      30.12F
OAK RIDGE      MOCLDY    71  69  93 CALM      30.15S
CROSSVILLE     MOCLDY    70  66  87 S5        30.16S
NASHVILLE      CLOUDY    72  70  93 S7        30.07S
$$

...KEY TO REMARKS...
VSB - VISIBILITY IN MILES
WCI - WIND CHILL INDEX
HX  - HEAT INDEX

$$



USA.gov is the U.S. government's official web portal to all federal, state and local government web resources and services.